C/2016 X1 ( Lemmon )

Japanese version
Home page
Updated on March 25, 2017

---------------------------------------------------------------------

* Profile

Discovery Date December 8, 2016
Magnitude 20.1 mag
Discoverer G. J. Leonard (Mount Lemmon)

* Pictures

* Orbital Elements

Epoch 2019 Apr. 27.0 TT = JDT 2458600.5
T 2019 Apr. 30.74707 TT                                 MPCW
q   7.5406043            (2000.0)            P               Q
z  -0.0003620      Peri.  224.83133     -0.44719601     -0.78267047
 +/-0.0003508      Node   256.42871     +0.89330087     -0.36644083
e   1.0027299      Incl.   26.44779     +0.04504766     -0.50313821
From 43 observations 2016 Nov. 26-2017 Feb. 16, mean residual 0".7.

* Magnitudes Graph

        m1 = 6.0 + 5 log d + 10.0 log r

---------------------------------------------------------------------

The orbital elements are published on M.P.E.C. 2017-E59.
The magnitudes graphs are made with Comet for Windows.

---------------------------------------------------------------------

Copyright(C) Seiichi Yoshida (comet@aerith.net). All rights reserved.